DW0805 Weather Reports


time (UTC)temp
C
wind
direction
speed
KPH
gust
KPH
rain 1hr
cm
rain 24hr
cm
rain mn
cm
humidity
%
barometer
mb
20260906204515 15 232 6.4 12.9 0.00 0.00 0.00 85 1021.9
20260906202516 15 240 4.8 9.7 0.00 0.00 0.00 84 1021.8
20260906194514 16 233 8.0 16.1 0.00 0.00 0.00 83 1021.8
20260906190514 16 245 8.0 14.5 0.00 0.00 0.00 82 1021.9
20260906185514 16 247 9.7 14.5 0.00 0.00 0.00 82 1021.9
20260906183514 16 244 6.4 12.9 0.00 0.00 0.00 82 1022.0
20260906180514 16 240 8.0 12.9 0.00 0.00 0.00 78 1021.9
20260906175514 16 313 6.4 19.3 0.00 0.00 0.00 78 1021.9
20260906173514 16 255 4.8 11.3 0.00 0.00 0.00 78 1021.8
20260906172514 16 256 4.8 16.1 0.00 0.00 0.00 77 1021.9
20260906170514 17 251 4.8 11.3 0.00 0.00 0.00 77 1021.9
20260906164514 17 269 4.8 11.3 0.00 0.00 0.00 75 1022.0
20260906163514 17 306 9.7 12.9 0.00 0.00 0.00 75 1022.1
20260906162514 17 312 3.2 11.3 0.00 0.00 0.00 75 1022.0
20260906161514 17 273 9.7 12.9 0.00 0.00 0.00 73 1022.2
20260906155514 17 268 9.7 20.9 0.00 0.00 0.00 71 1022.0
20260906154514 17 267 9.7 20.9 0.00 0.00 0.00 70 1022.0
20260906152515 19 267 14.5 22.5 0.00 0.00 0.00 65 1022.0
20260906151515 19 294 8.0 25.7 0.00 0.00 0.00 67 1021.9
20260906150514 18 286 16.1 24.1 0.00 0.00 0.00 65 1021.9
20260906145514 18 266 14.5 25.7 0.00 0.00 0.00 66 1022.1
20260906143514 19 286 11.3 25.7 0.00 0.00 0.00 66 1022.0
20260906142514 18 247 14.5 25.7 0.00 0.00 0.00 67 1022.1
20260906140516 18 264 22.5 32.2 0.00 0.00 0.00 66 1022.0
20260906134515 18 246 27.4 37.0 0.00 0.00 0.00 69 1021.9
20260906132514 17 255 19.3 27.4 0.00 0.00 0.00 69 1021.9
20260906131514 18 279 16.1 27.4 0.00 0.00 0.00 68 1022.0
20260906130514 18 277 19.3 32.2 0.00 0.00 0.00 70 1022.0
20260906121515 18 242 22.5 35.4 0.00 0.00 0.00 70 1021.9
20260906115515 18 274 22.5 33.8 0.00 0.00 0.00 71 1021.8
20260906103515 17 298 14.5 27.4 0.00 0.00 0.00 74 1021.3
20260906102513 17 335 20.9 32.2 0.00 0.00 0.00 74 1021.2
20260906095513 17 273 19.3 32.2 0.00 0.00 0.00 75 1020.8
20260906094515 17 284 20.9 29.0 0.00 0.00 0.00 77 1020.7
20260906092514 16 298 16.1 29.0 0.00 0.00 0.00 77 1020.6
20260906091514 17 303 20.9 29.0 0.00 0.00 0.00 76 1020.4
20260906085514 17 285 20.9 29.0 0.00 0.00 0.00 76 1020.3
20260906084515 16 294 14.5 35.4 0.00 0.00 0.00 78 1020.2
20260906081514 16 297 19.3 25.7 0.00 0.00 0.00 79 1020.0
20260906075514 16 336 16.1 35.4 0.00 0.00 0.00 81 1019.8
20260906074515 15 281 19.3 27.4 0.00 0.00 0.00 81 1019.6
20260906073514 15 295 17.7 29.0 0.00 0.00 0.00 81 1019.6
20260906072514 15 291 16.1 32.2 0.00 0.00 0.00 82 1019.5
20260906071514 15 295 14.5 29.0 0.00 0.00 0.00 82 1019.4
20260906063515 15 303 22.5 37.0 0.00 0.00 0.00 82 1018.8
20260906062514 15 294 22.5 35.4 0.00 0.00 0.00 82 1018.7
20260906055514 14 290 16.1 35.4 0.00 0.00 0.00 83 1018.4
20260906053515 14 288 16.1 25.7 0.00 0.00 0.00 84 1018.1
20260906052514 14 308 19.3 32.2 0.00 0.00 0.00 84 1018.0
20260906050514 14 302 17.7 32.2 0.00 0.00 0.00 84 1017.8
20260906045514 14 292 19.3 37.0 0.00 0.00 0.00 83 1017.6
20260906043514 14 270 20.9 29.0 0.00 0.00 0.00 84 1017.4
20260906042514 14 302 24.1 33.8 0.00 0.00 0.00 84 1017.3
20260906033513 14 288 17.7 32.2 0.00 0.00 0.00 83 1016.3
20260906032514 14 302 19.3 27.4 0.00 0.00 0.00 84 1016.3
20260906031514 14 301 19.3 27.4 0.00 0.00 0.00 84 1016.1
20260906030515 14 291 12.9 32.2 0.00 0.00 0.00 84 1016.0
20260906022514 14 290 20.9 35.4 0.00 0.00 0.00 83 1015.6
20260906021516 14 314 19.3 33.8 0.00 0.00 0.00 84 1015.6
20260906012514 14 298 22.5 40.2 0.00 0.00 0.00 83 1015.1
20260906011515 14 285 24.1 33.8 0.00 0.00 0.00 83 1015.0
20260906005514 15 297 25.7 40.2 0.00 0.00 0.00 83 1014.8
20260905233515 15 319 19.3 38.6 0.00 0.00 0.00 82 1013.7
20260905232514 15 303 24.1 35.4 0.00 0.00 0.00 81 1013.7
20260905230516 15 300 25.7 37.0 0.00 0.00 0.00 81 1013.5
20260905224516 15 301 43.5 45.1 0.00 0.00 0.00 81 1013.3
20260905222514 15 300 29.0 40.2 0.00 0.00 0.00 81 1012.8
20260905221510 15 279 24.1 41.8 0.00 0.00 0.00 81 1012.7
20260905220514 15 289 20.9 40.2 0.00 0.00 0.00 80 1012.5
20260905215514 15 296 22.5 38.6 0.00 0.00 0.00 80 1012.3
20260905213514 15 276 22.5 48.3 0.00 0.00 0.00 79 1012.2
20260905211515 15 283 25.7 41.8 0.00 0.00 0.00 80 1011.9